Temperature
16 16 16 17 16 16 16 16 16 17 16 16 16 16 16 17 17 17 17 17 17 17 17 17 17 17 17 17 17 17 17 17 17 17 17 17 17 16 16 16 16 16 16
16 16 16 16 16 16 16 16 16 16 16 16 16 16 16 17 16 17 17 17 17 17 17 17 17 17 17 17 17 17 17 17 17 17 17 16 16 16 16 16 16 16 16
16 16 15 15 15 15 16 16 16 16 16 16 16 16 16 16 16 16 17 17 17 17 17 17 17 17 17 17 17 17 17 17 16 16 16 16 16 16 16 16 16 16 16
15 15 15 15 15 15 15 15 15 15 15 16 16 16 16 16 16 16 16 16 16 17 17 17 17 16 16 17 17 17 16 16 17 16 16 16 16 16 16 16 16 16 16
15 14 14 14 14 15 15 15 15 15 15 15 16 15 16 16 16 16 16 16 16 16 16 16 16 16 16 16 17 16 16 16 16 16 16 16 16 16 16 16 16 16 16
14 14 14 14 14 14 14 14 14 14 15 15 16 16 15 15 15 16 16 16 16 16 16 16 16 16 16 16 16 16 16 16 16 16 16 16 16 16 16 16 16 16 16
14 14 14 14 14 14 14 14 14 14 15 14 15 16 16 15 15 15 15 16 16 16 16 16 16 16 16 16 16 16 16 16 16 16 16 16 16 16 16 16 16 16 16
14 14 14 14 14 13 13 13 14 14 14 14 15 17 17 16 15 15 15 15 15 16 16 16 15 15 16 16 16 16 16 16 16 16 16 16 16 16 16 16 16 16 16
14 14 13 13 13 13 13 13 13 13 14 14 14 16 17 18 17 15 15 15 15 15 15 15 15 15 15 15 15 16 16 16 16 16 16 16 16 16 16 16 16 16 16
14 14 13 13 13 13 13 13 13 13 13 15 14 14 14 15 16 17 15 15 14 15 15 15 15 15 15 15 15 15 15 16 16 16 16 16 16 16 16 16 16 16 16
14 14 13 13 13 13 13 13 13 13 13 14 14 14 14 14 15 16 17 16 15 15 14 14 14 15 15 15 15 15 15 15 15 15 16 16 16 16 16 16 16 16 16
14 14 13 13 13 13 12 12 12 12 13 13 13 14 14 15 15 15 16 15 16 15 14 14 14 14 14 14 14 15 15 15 15 15 15 15 15 15 16 16 16 16 16
14 14 14 14 13 13 13 12 12 12 12 12 12 13 13 14 14 14 15 16 15 15 14 14 14 14 14 14 14 14 14 15 15 15 15 15 15 15 15 15 15 15 15
15 14 14 14 13 13 13 13 12 12 12 12 12 12 12 13 13 13 14 14 15 16 15 14 14 14 13 13 13 14 13 14 14 14 14 15 15 15 15 15 15 15 15
15 15 15 14 14 13 13 13 13 12 12 12 12 12 12 13 13 13 13 13 14 15 16 15 14 13 13 13 13 13 13 13 14 14 14 14 14 14 14 14 15 15 15
15 15 15 15 14 14 14 13 13 12 12 12 12 12 12 12 13 12 12 13 13 13 14 15 14 14 13 12 12 12 12 13 13 13 14 14 14 14 14 14 14 14 14
16 16 15 15 15 14 14 14 13 13 13 12 12 12 12 12 12 12 12 12 12 12 13 13 13 13 12 12 12 12 12 12 12 12 13 13 13 13 13 14 14 14 14
17 16 16 16 15 15 15 14 14 14 13 13 13 13 13 12 12 12 12 12 12 12 12 12 13 13 12 11 11 11 12 12 12 12 12 13 13 13 13 13 13 14 14
17 17 17 16 16 16 15 15 15 15 14 14 14 13 13 13 12 12 12 12 12 12 12 12 12 12 12 12 11 11 11 11 12 12 12 12 13 13 13 13 13 13 13
18 17 17 17 17 16 16 16 16 15 15 15 15 14 14 13 13 13 12 12 12 12 12 12 12 12 12 12 11 11 12 12 12 12 12 12 12 12 13 13 13 13 13
18 18 17 17 17 16 16 16 16 16 16 16 15 15 15 15 14 14 13 13 12 12 12 12 13 13 13 12 12 12 12 12 12 12 12 12 12 12 12 12 12 12 13
18 17 17 17 17 17 16 17 16 16 15 15 15 15 15 15 15 15 15 14 13 12 12 12 13 13 12 12 12 11 12 12 12 12 12 12 12 12 12 12 12 12 12
18 18 17 17 17 17 17 17 16 16 15 15 15 15 15 15 14 15 15 15 14 14 13 12 12 12 12 12 11 11 11 11 11 12 11 11 12 12 12 12 12 11 12
17 17 17 17 17 17 16 16 16 15 15 15 14 14 14 14 14 14 14 13 14 14 14 13 13 13 12 11 11 10 10 10 10 10 10 11 11 12 12 12 11 11 11
16 16 16 16 16 16 15 15 15 14 14 14 14 14 14 14 14 14 13 13 13 13 13 13 13 13 12 12 11 10 10 10 11 11 11 11 11 11 11 11 11 11 11
15 15 14 14 14 14 14 14 14 13 13 13 13 13 13 13 13 13 13 13 12 13 12 12 12 12 12 12 11 11 10 10 11 12 12 11 11 11 11 11 11 11 11
Wind_Speed
1 1 1 2 3 3 4 4 4 3 4 4 4 5 5 4 4 5 4 7 8 10 11 12 13 13 13 13 13 13 13 13 13 12 12 12 11 11 10 10 10 9 9
2 2 1 1 2 2 2 2 2 3 3 3 3 3 4 4 4 5 5 7 8 9 12 13 13 14 14 14 13 13 14 14 14 14 13 13 13 12 11 10 10 10 9
2 2 1 1 1 1 1 2 2 2 3 3 3 3 3 3 3 4 5 4 7 9 12 13 14 15 15 15 15 15 15 15 15 15 15 15 14 14 13 12 11 11 11
3 2 1 1 1 1 1 1 2 2 1 2 2 2 2 2 3 4 6 6 6 6 10 13 14 14 15 16 16 16 16 15 15 16 17 17 16 16 16 15 14 13 13
3 2 2 2 1 1 1 1 0 2 1 2 2 2 2 2 2 4 4 5 5 6 6 10 13 14 15 16 15 15 15 16 17 17 17 18 18 18 18 17 16 16 15
3 2 2 2 1 1 1 1 1 1 2 2 3 1 2 1 2 1 4 4 4 6 7 7 10 13 15 15 15 15 16 17 18 18 18 19 19 20 20 20 19 18 18
3 2 2 2 1 2 2 1 1 1 1 2 4 3 3 2 0 0 1 2 1 3 4 5 8 8 10 15 16 16 16 17 18 18 19 19 20 21 22 22 22 21 20
3 3 3 2 2 2 2 1 2 2 1 1 3 4 4 4 3 1 1 1 1 1 2 3 4 5 8 7 11 14 14 15 16 17 18 19 20 22 23 23 23 23 23
3 3 2 2 2 0 2 1 1 1 1 0 2 3 3 2 4 4 2 2 2 1 0 0 1 2 5 5 5 9 11 13 14 16 17 18 20 22 23 24 24 24 24
4 3 2 2 1 2 2 0 3 1 2 1 1 1 3 4 3 2 4 3 2 2 3 2 1 1 1 2 2 3 2 6 10 13 15 17 19 21 22 24 24 24 25
6 5 4 3 2 1 1 2 1 2 1 2 1 1 1 2 4 5 2 2 2 1 0 1 1 1 1 0 1 5 4 1 2 5 8 11 14 17 19 21 22 23 24
6 7 6 5 4 2 2 1 1 1 2 2 2 1 2 2 3 3 4 5 4 3 2 2 2 1 1 1 3 6 4 3 2 1 4 6 9 12 15 17 19 21 22
6 8 7 6 5 4 4 3 3 1 2 1 2 2 2 2 3 4 5 5 5 4 3 5 3 3 3 2 1 3 1 1 2 3 3 5 6 8 11 14 16 18 19
6 6 8 8 7 7 6 5 4 4 3 3 3 3 4 3 3 4 5 5 6 6 5 5 4 5 4 5 1 5 5 2 3 5 6 6 7 8 9 11 12 15 17
6 7 8 8 8 8 7 7 6 5 5 6 5 5 6 4 5 5 5 6 7 7 6 4 5 4 5 6 3 7 8 3 5 8 8 9 9 10 11 12 12 13 14
7 8 9 9 9 9 9 9 8 7 7 7 6 6 6 7 5 6 6 6 7 8 8 5 4 6 5 8 6 8 10 8 12 12 10 10 11 11 12 13 14 15 16
10 10 10 10 10 10 10 10 10 8 9 9 8 8 9 9 7 7 7 7 8 8 9 9 8 7 7 9 9 10 11 12 12 14 12 11 12 13 13 14 15 15 16
11 11 11 11 11 11 11 12 12 11 11 11 10 10 10 9 10 9 8 9 9 9 10 12 10 9 9 9 10 10 12 12 13 10 12 12 14 14 15 16 16 16 17
12 12 12 12 12 12 12 13 13 12 12 12 12 12 12 11 12 10 10 11 10 10 10 11 11 9 9 9 10 11 12 11 14 13 14 17 18 17 17 17 17 18 18
12 12 13 13 13 13 13 14 14 14 14 14 13 13 13 13 13 13 12 12 11 11 11 12 12 11 10 10 9 10 11 10 11 12 11 12 14 18 19 19 19 19 19
13 13 13 13 14 13 14 15 14 15 15 15 15 15 15 15 15 13 12 12 12 12 12 12 12 11 11 9 10 10 11 10 10 10 10 11 11 13 15 20 23 22 20
12 12 13 14 15 14 13 15 15 15 14 15 15 16 16 16 17 18 17 15 14 14 14 13 13 13 12 11 10 11 11 11 12 9 10 11 10 11 11 14 13 16 18
11 12 13 14 15 16 14 15 17 16 16 16 16 16 15 15 17 17 19 22 21 21 19 17 17 16 14 12 12 13 13 13 13 10 9 12 12 12 12 14 11 13 16
9 10 12 13 14 15 13 15 15 17 18 19 18 18 18 18 17 17 17 18 19 20 20 20 20 19 17 14 13 14 14 14 14 13 13 14 13 13 12 13 14 18 20
7 8 9 11 12 13 10 11 13 13 15 19 20 20 20 20 19 17 18 19 19 18 19 21 20 19 17 14 12 12 14 14 15 14 12 14 14 13 13 13 14 19 22
6 7 8 9 10 11 7 7 10 11 15 16 16 18 19 21 19 17 19 20 21 20 18 17 18 20 21 21 19 18 17 16 15 15 12 12 13 13 13 12 12 11 14
Wind_Direction
335 328 315 298 276 263 231 228 231 218 214 210 220 212 222 230 241 244 186 170 202 212 209 204 202 203 205 203 202 197 196 193 191 187 184 181 179 179 178 176 174 170 169
14 327 275 303 294 282 288 256 236 215 217 205 218 212 224 225 223 240 234 186 195 208 209 205 205 207 208 207 207 207 205 202 199 196 194 192 188 187 188 187 185 182 181
35 344 354 292 348 323 228 228 223 221 212 204 205 215 226 240 233 238 250 238 207 199 204 206 207 209 209 210 211 213 212 210 207 205 203 201 198 197 196 196 195 193 192
41 351 353 21 353 288 240 192 248 223 228 239 218 237 230 229 241 242 243 238 239 229 200 199 206 210 211 211 212 215 214 215 215 213 211 209 207 206 204 203 203 202 201
53 29 36 34 293 288 288 270 72 292 255 279 242 222 252 254 255 247 253 249 238 241 230 193 206 213 214 215 212 214 216 219 221 220 217 215 213 213 212 210 208 208 208
61 30 82 48 344 64 61 42 45 357 313 297 285 270 266 260 258 273 260 244 235 233 231 225 216 213 214 218 214 214 216 219 223 225 225 222 219 217 216 215 214 213 212
82 33 56 80 8 56 21 353 308 213 275 307 259 225 196 197 173 237 298 292 238 239 238 227 231 225 211 211 214 216 219 222 225 227 228 228 226 222 220 219 218 217 216
114 100 56 84 72 87 75 29 332 307 357 318 290 254 212 179 179 93 95 73 1 251 217 218 231 228 242 214 204 209 217 221 223 226 228 230 231 230 226 223 221 220 220
141 92 96 66 74 25 83 41 348 313 313 104 330 303 284 242 158 149 108 86 66 20 37 150 227 233 236 236 209 195 211 219 222 225 228 230 232 233 231 228 225 224 223
183 167 147 112 80 67 93 118 62 349 303 276 147 334 340 350 296 187 177 151 111 53 31 348 80 114 224 222 152 93 164 217 224 227 228 229 229 232 234 233 230 228 227
200 197 189 177 179 163 88 51 71 358 339 329 313 251 236 238 269 285 237 202 199 175 63 328 357 29 47 39 133 77 64 51 235 228 228 229 228 229 231 233 235 234 232
201 200 202 203 208 196 175 182 173 159 20 9 322 300 278 277 272 272 271 256 256 232 250 270 258 260 279 281 68 55 50 42 16 266 244 241 239 235 234 234 236 237 237
203 195 204 205 211 206 207 208 217 243 216 237 270 283 294 294 298 289 285 281 278 260 235 241 234 252 253 265 199 23 152 20 345 323 295 271 262 255 246 242 240 240 241
214 189 199 206 211 212 213 212 230 220 225 240 253 275 274 263 273 275 282 291 281 267 234 239 251 244 259 268 8 304 250 191 297 299 292 283 275 267 260 254 249 246 245
207 195 203 208 212 214 219 219 235 232 229 240 239 226 249 258 254 265 269 274 285 289 281 217 241 233 249 269 278 278 274 233 272 279 278 277 275 270 266 261 257 253 251
208 202 206 211 214 214 216 223 232 224 233 239 251 262 258 261 255 256 260 261 263 274 283 285 257 263 275 288 249 263 269 253 251 251 257 266 270 269 266 263 260 258 256
206 209 211 213 217 218 218 221 236 233 233 239 239 240 241 257 260 258 251 254 256 259 268 274 273 263 256 268 276 269 266 264 257 222 232 253 264 266 266 264 261 260 258
210 211 214 217 221 222 221 223 230 233 233 237 239 241 243 241 240 253 258 255 255 258 263 272 275 271 255 253 260 265 266 263 266 225 217 243 256 259 261 260 261 261 259
213 216 215 220 224 226 226 227 230 234 236 237 239 239 240 242 242 244 246 252 253 250 251 263 267 267 266 259 260 257 258 259 265 253 223 232 241 247 253 255 255 256 256
214 218 220 224 227 229 230 230 230 233 236 238 239 239 239 238 238 241 242 245 251 256 254 256 263 263 259 254 254 262 261 247 249 260 258 251 239 236 243 246 248 249 250
219 221 225 228 231 232 233 231 232 233 235 238 238 238 239 237 238 238 243 241 240 245 251 254 258 260 258 255 254 256 261 264 256 254 260 259 250 245 238 235 235 238 240
226 226 228 232 234 237 227 221 231 242 240 240 242 240 240 233 231 228 239 247 251 248 250 256 259 259 260 259 258 261 266 264 264 254 251 260 261 261 258 256 238 219 227
229 231 234 236 240 242 231 217 219 238 247 247 245 244 245 241 228 232 228 229 238 243 246 250 258 261 261 254 256 256 254 260 267 271 262 264 263 262 261 258 229 224 237
243 243 244 244 247 248 232 223 220 235 248 250 248 246 246 249 241 235 237 234 233 233 230 234 244 252 255 259 256 256 265 264 261 256 254 261 265 265 264 262 235 223 236
262 260 258 257 257 260 245 228 224 249 249 252 252 250 247 247 242 227 237 243 244 243 236 229 232 241 249 252 252 254 254 254 257 255 240 246 258 264 266 264 256 227 228
280 278 275 273 272 274 270 238 226 257 261 261 257 254 248 244 246 222 233 241 245 245 247 238 227 236 243 242 233 238 246 250 255 258 250 244 253 261 268 264 260 251 236
Height
1573 1573 1572 1572 1574 1574 1574 1574 1575 1576 1576 1577 1578 1579 1580 1581 1582 1584 1584 1584 1585 1586 1587 1588 1589 1590 1592 1593 1594 1595 1597 1598 1599 1600 1601 1602 1603 1604 1605 1606 1607 1608 1609
1571 1571 1571 1571 1572 1572 1573 1573 1574 1574 1575 1576 1577 1577 1578 1580 1580 1581 1583 1583 1584 1585 1586 1587 1588 1589 1591 1592 1593 1594 1595 1597 1598 1599 1601 1602 1603 1604 1605 1606 1607 1608 1609
1569 1570 1571 1571 1571 1571 1571 1572 1572 1573 1574 1575 1575 1576 1577 1577 1579 1579 1581 1582 1582 1583 1584 1585 1586 1587 1589 1590 1591 1593 1594 1596 1597 1598 1600 1601 1603 1604 1605 1606 1607 1608 1609
1568 1569 1570 1570 1569 1571 1571 1571 1572 1573 1574 1574 1575 1575 1576 1576 1577 1577 1578 1579 1580 1581 1582 1582 1584 1585 1586 1588 1589 1591 1593 1594 1595 1597 1598 1600 1601 1603 1604 1605 1606 1607 1608
1568 1569 1569 1569 1569 1570 1571 1571 1572 1572 1573 1573 1574 1574 1575 1575 1575 1576 1576 1577 1578 1579 1580 1580 1581 1582 1584 1585 1587 1588 1590 1592 1593 1595 1596 1598 1599 1601 1602 1604 1605 1606 1607
1568 1568 1569 1568 1569 1570 1570 1570 1570 1570 1571 1572 1573 1573 1574 1574 1574 1574 1575 1576 1576 1576 1577 1578 1579 1580 1581 1582 1584 1585 1587 1589 1591 1592 1594 1595 1597 1599 1600 1601 1603 1604 1605
1568 1568 1569 1568 1568 1569 1569 1570 1570 1571 1571 1571 1573 1573 1573 1573 1573 1573 1574 1574 1574 1575 1576 1576 1577 1578 1578 1579 1580 1582 1584 1585 1587 1589 1590 1592 1594 1596 1597 1599 1600 1602 1603
1568 1569 1567 1569 1568 1568 1569 1569 1569 1571 1571 1571 1572 1572 1572 1574 1572 1573 1573 1573 1573 1574 1574 1575 1575 1575 1576 1577 1577 1579 1580 1582 1583 1585 1586 1588 1590 1592 1594 1595 1597 1598 1600
1568 1567 1568 1568 1568 1569 1569 1568 1569 1569 1571 1571 1571 1572 1571 1570 1571 1573 1572 1572 1572 1573 1573 1573 1573 1573 1574 1575 1575 1576 1577 1578 1580 1581 1583 1584 1586 1588 1590 1591 1593 1594 1596
1568 1568 1568 1567 1568 1569 1568 1569 1568 1569 1569 1571 1570 1570 1571 1571 1571 1571 1572 1572 1571 1571 1572 1572 1572 1572 1572 1573 1573 1573 1574 1575 1577 1578 1579 1580 1582 1583 1585 1586 1588 1590 1591
1567 1567 1567 1567 1567 1568 1568 1567 1567 1568 1569 1569 1570 1570 1570 1570 1571 1571 1571 1572 1572 1571 1571 1571 1571 1571 1571 1571 1571 1570 1571 1572 1573 1574 1575 1576 1577 1579 1580 1581 1583 1584 1586
1566 1566 1566 1566 1567 1568 1567 1567 1567 1567 1567 1567 1568 1570 1570 1570 1570 1570 1570 1570 1570 1570 1569 1569 1569 1569 1569 1569 1569 1568 1568 1569 1570 1570 1571 1572 1573 1574 1575 1576 1577 1578 1580
1565 1565 1565 1565 1566 1566 1566 1566 1566 1567 1567 1567 1567 1568 1569 1569 1569 1569 1569 1568 1568 1568 1567 1567 1567 1567 1567 1567 1566 1565 1565 1566 1566 1567 1567 1568 1568 1569 1569 1570 1571 1573 1574
1564 1563 1563 1564 1564 1565 1565 1565 1566 1566 1566 1566 1566 1566 1566 1567 1567 1567 1568 1567 1566 1565 1565 1565 1565 1564 1564 1564 1562 1562 1562 1561 1562 1562 1562 1563 1563 1564 1565 1565 1566 1567 1568
1561 1560 1561 1562 1562 1563 1563 1564 1565 1564 1564 1565 1565 1565 1565 1566 1565 1565 1565 1565 1565 1563 1562 1562 1562 1561 1560 1560 1558 1558 1558 1557 1557 1557 1557 1558 1558 1559 1559 1560 1560 1561 1562
1557 1558 1559 1559 1560 1561 1561 1561 1563 1563 1562 1562 1562 1562 1562 1563 1563 1563 1562 1562 1562 1562 1560 1560 1559 1559 1557 1556 1555 1553 1553 1552 1551 1552 1552 1552 1552 1553 1553 1554 1554 1555 1556
1554 1555 1556 1557 1558 1558 1558 1559 1560 1560 1560 1560 1560 1559 1559 1559 1560 1560 1559 1559 1559 1558 1557 1556 1556 1555 1552 1551 1551 1550 1549 1548 1548 1546 1546 1546 1546 1546 1547 1547 1548 1548 1549
1551 1552 1553 1554 1555 1555 1556 1556 1556 1557 1557 1557 1557 1556 1556 1556 1555 1555 1555 1555 1555 1554 1553 1552 1551 1550 1549 1547 1545 1544 1544 1544 1543 1542 1540 1540 1539 1540 1540 1540 1541 1541 1542
1548 1549 1549 1550 1551 1552 1552 1552 1553 1553 1553 1553 1553 1552 1552 1552 1551 1551 1550 1551 1551 1550 1549 1548 1546 1545 1544 1543 1541 1540 1539 1537 1537 1537 1535 1533 1533 1533 1533 1533 1533 1534 1534
1544 1544 1545 1546 1547 1547 1548 1548 1548 1548 1548 1548 1548 1547 1547 1547 1546 1546 1545 1545 1545 1544 1544 1543 1541 1540 1539 1538 1537 1535 1535 1533 1532 1532 1531 1529 1527 1526 1526 1526 1526 1526 1527
1539 1540 1541 1541 1542 1542 1543 1543 1543 1543 1543 1543 1542 1542 1541 1541 1540 1540 1540 1540 1540 1539 1538 1538 1536 1535 1534 1533 1532 1531 1530 1529 1527 1526 1525 1524 1524 1522 1520 1519 1518 1519 1519
1534 1535 1536 1536 1536 1537 1537 1537 1538 1538 1537 1537 1536 1535 1535 1533 1533 1533 1533 1532 1533 1532 1532 1531 1530 1529 1528 1528 1527 1526 1525 1524 1522 1522 1520 1519 1518 1517 1516 1515 1514 1512 1511
1529 1529 1530 1530 1530 1530 1530 1530 1530 1530 1530 1529 1528 1527 1527 1527 1526 1525 1524 1524 1523 1523 1523 1523 1522 1521 1521 1521 1520 1519 1518 1517 1516 1516 1515 1513 1512 1510 1509 1508 1506 1505 1504
1522 1523 1523 1523 1522 1523 1523 1522 1522 1521 1520 1519 1519 1518 1518 1518 1518 1517 1516 1515 1514 1513 1513 1513 1511 1512 1513 1513 1512 1512 1511 1510 1508 1507 1507 1506 1505 1504 1502 1501 1499 1497 1496
1516 1516 1516 1515 1514 1514 1514 1514 1513 1512 1510 1509 1509 1509 1508 1508 1507 1508 1508 1506 1506 1505 1504 1503 1503 1503 1503 1503 1504 1504 1504 1504 1502 1501 1500 1499 1497 1497 1495 1494 1492 1490 1488
1510 1509 1509 1508 1507 1506 1506 1505 1504 1503 1501 1500 1499 1498 1498 1497 1497 1497 1497 1496 1495 1495 1496 1495 1493 1492 1492 1493 1493 1494 1494 1495 1493 1493 1493 1492 1491 1490 1488 1487 1486 1484 1482